Temp_Advection
nan nan nan nan nan nan nan nan nan nan nan nan nan nan nan nan nan nan nan nan nan nan nan nan nan nan nan nan nan nan nan nan nan nan nan nan nan nan nan nan nan nan nan nan
nan -1 -0 -1 -1 -0 -0 -0 -0 -0 -1 -2 -1 1 0 0 -0 -0 -0 0 1 1 -0 -0 0 1 0 1 2 2 0 0 0 0 -0 -0 1 1 1 0 1 1 1 nan
nan -1 0 0 -1 -1 -1 -0 1 -0 -1 -1 -1 -0 0 0 -0 -0 -0 -0 0 -0 -0 0 0 1 1 1 1 -1 -1 0 0 -0 0 0 1 1 0 0 0 0 1 nan
nan 0 -0 -1 0 0 -1 -2 -1 -0 -0 -0 -1 -0 0 0 -0 -0 -0 -0 -0 0 0 0 0 0 0 0 -1 -1 -0 0 0 0 1 1 1 0 0 1 1 1 0 nan
nan -1 -1 0 -0 -0 -0 -1 -1 -1 -1 -1 -0 -1 -0 -0 0 0 -0 -0 0 0 -0 0 0 0 0 -1 -0 -0 -0 -0 -0 1 1 1 1 1 1 1 1 1 0 nan
nan 0 -0 0 0 0 -1 0 -1 -1 -1 -1 -0 0 -0 0 0 0 0 0 0 0 0 -0 -0 0 0 0 1 0 -0 -0 1 1 1 1 0 0 0 0 1 1 1 nan
nan -0 -1 0 -0 -1 -0 -0 0 -1 -1 -1 -1 -0 -0 0 0 0 0 0 -0 -0 0 -0 -0 -0 0 1 0 1 1 1 2 1 1 1 1 1 1 1 2 1 1 nan
nan 0 -0 -0 -1 -0 -0 -0 -1 -1 -1 -0 -1 -1 -1 -0 -0 -0 0 0 -0 -0 -0 -0 -0 -0 0 0 1 1 2 3 2 1 1 1 2 2 2 2 1 0 0 nan
nan -0 -0 2 1 -0 -0 -0 -1 -1 -1 -1 -1 -0 -1 -1 -0 -0 0 0 0 0 -0 0 0 -0 0 0 1 1 1 2 1 0 1 1 1 2 1 1 0 0 0 nan
nan -0 0 1 1 0 0 -0 -0 -0 -0 -0 -1 -1 -1 -0 -0 0 0 0 0 0 0 0 0 0 0 0 1 1 1 1 1 1 1 1 0 -0 -0 -0 -0 -0 0 nan
nan -0 -1 -1 0 1 0 -0 -0 -0 -0 1 -1 -2 -1 -1 -1 -0 0 0 0 0 0 0 0 0 0 0 1 1 0 0 0 1 1 0 -0 0 0 0 0 1 1 nan
nan 0 -0 -1 -0 -1 -1 -0 -0 -1 -1 -1 1 -1 -2 -1 -1 -0 -0 0 0 1 1 0 0 0 0 -0 -0 0 0 0 -0 0 0 0 0 1 1 1 1 1 1 nan
nan -0 1 -0 -1 -0 -0 -1 -1 -0 -1 -2 -1 0 -0 -1 -1 -0 -0 -0 0 0 1 0 0 0 -0 -0 -0 0 -0 -1 -1 -1 -0 0 0 0 0 0 1 0 1 nan
nan 0 -1 -0 -0 -0 -0 -0 -0 -0 -0 -1 -2 -1 -0 -0 -1 -1 -0 -0 -0 -0 0 0 1 1 0 0 -0 -0 -1 -1 -1 -1 -0 -0 0 0 0 -0 0 0 0 nan
nan 0 0 -0 -0 -0 -0 -0 -0 -0 -0 0 -1 -2 -1 -1 -1 -1 -1 -0 -0 0 1 0 1 1 1 0 0 -0 -0 -0 -0 -0 0 0 0 0 1 0 -0 -0 -0 nan
nan 0 -0 -0 -0 -1 -1 -0 -1 -0 -0 -0 -0 -0 -1 -1 -1 -0 -0 -1 -0 -0 -0 0 0 1 1 1 0 0 0 0 0 0 0 0 0 0 0 0 -0 -0 -0 nan
nan -0 -0 -0 -0 -1 -0 -0 -0 -0 -0 0 0 -1 -1 -1 -1 -0 -0 -0 -0 -0 -0 0 0 0 1 1 0 0 0 1 1 1 1 0 0 0 0 0 -0 -0 -0 nan
nan -0 -0 -0 -0 -0 -0 -0 -0 -0 -0 -0 -0 -1 -1 -1 -0 -0 -0 -0 -0 -0 -0 -0 -0 0 0 0 0 0 0 0 1 1 0 0 0 0 0 -0 -0 -0 0 nan
nan -0 -0 -0 -0 -0 -0 -0 -0 -0 -0 -0 -0 -0 -0 -0 -0 -0 0 0 -0 -0 -0 -0 -0 0 0 0 0 0 0 0 0 0 0 0 0 0 -0 -0 0 0 0 nan
nan -0 -0 -0 -0 -0 -0 -0 -0 -0 -0 -0 -0 -0 -0 -0 -0 -1 -0 -0 0 0 0 -0 -0 0 0 0 0 0 0 0 0 0 0 0 0 0 0 0 0 0 0 nan
nan 0 0 0 0 0 -0 -0 -0 -1 -0 -0 -0 -0 -0 -0 -0 -0 -0 -0 -0 -0 0 0 0 0 0 0 0 0 0 0 0 0 -0 -0 -0 -0 0 0 0 0 -0 nan
nan 0 0 0 0 0 0 0 0 -0 -1 -0 -0 -0 0 -0 -0 -0 -0 -0 -0 -0 0 0 0 0 0 0 0 0 0 0 -0 -0 -0 -0 -0 -0 -0 -0 -0 -0 -0 nan
nan -0 -0 -0 -0 -0 -0 -1 -0 -0 -0 -1 -0 -0 -0 0 0 -0 -0 -0 -0 -0 0 0 0 0 0 0 0 0 0 0 0 0 -0 -0 -0 -0 -0 -0 -0 -0 0 nan
nan -1 -0 -0 -0 -0 -0 -1 -1 -1 -1 -1 -1 -0 -0 -0 0 0 -0 -0 -0 -0 0 0 0 0 0 0 0 0 0 0 0 0 -0 -0 -0 0 0 0 0 0 0 nan
nan -0 -0 -1 -1 -0 -0 -0 -0 -1 -1 -1 -1 -1 -0 -0 -0 -0 -0 0 0 0 0 0 0 0 0 0 0 0 0 -0 -0 -0 -0 0 0 0 0 0 0 0 0 nan
nan -0 -0 -1 -1 -1 -0 -0 -1 -0 -1 -1 -1 -1 -1 -0 -0 -0 -0 -0 -0 0 0 0 0 0 0 0 0 0 -0 -0 -0 -0 0 0 0 0 0 0 0 0 0 nan
nan nan nan nan nan nan nan nan nan nan nan nan nan nan nan nan nan nan nan nan nan nan nan nan nan nan nan nan nan nan nan nan nan nan nan nan nan nan nan nan nan nan nan nan
Wind_Speed
19 21 24 26 30 30 27 26 23 26 29 33 29 28 25 33 33 31 32 29 24 21 21 22 19 22 26 26 17 24 27 32 33 32 31 33 31 31 29 26 24 21 21 22
20 24 23 26 28 29 30 30 29 26 30 24 26 31 23 24 25 24 24 24 20 18 16 18 20 22 20 23 37 30 21 30 32 33 30 31 32 32 30 28 25 24 23 23
16 19 16 16 17 18 23 24 22 23 23 26 24 20 15 19 19 18 16 13 9 5 8 10 16 24 22 13 25 32 30 32 31 30 29 30 32 33 31 27 25 25 25 24
9 11 8 11 11 8 16 20 20 17 20 21 20 23 22 14 8 9 12 5 5 4 6 10 14 20 10 10 20 26 23 26 29 31 32 33 33 33 31 28 25 24 22 20
5 9 19 18 5 12 14 16 8 13 16 17 19 11 8 3 6 6 7 8 6 5 6 8 9 17 27 20 16 17 16 32 35 37 36 35 37 36 34 29 29 26 24 23
10 8 6 4 17 31 17 7 19 26 15 17 11 8 6 14 7 9 9 10 13 13 11 11 9 3 16 28 28 30 27 25 35 36 37 37 36 35 33 29 26 25 28 25
9 6 11 3 23 26 7 8 33 29 21 16 9 6 17 14 8 10 10 10 12 15 15 12 12 5 10 19 24 29 29 27 35 40 40 35 36 34 33 30 29 28 26 23
3 4 7 5 25 7 13 38 31 31 30 25 22 21 18 14 13 11 11 10 10 11 11 9 8 8 5 12 18 24 29 35 33 39 41 38 34 36 33 32 30 28 25 24
4 7 21 35 20 38 34 27 31 30 32 24 22 21 22 18 15 13 13 13 13 11 8 6 5 3 5 12 18 21 25 29 35 38 41 36 37 36 33 31 31 30 29 26
11 8 14 36 41 27 27 27 28 24 27 24 22 27 24 21 19 17 16 14 14 13 12 8 5 3 6 10 16 21 25 29 35 38 38 34 34 33 33 34 32 30 28 28
13 17 26 23 26 35 41 36 30 33 28 24 21 26 22 22 20 19 19 16 14 15 13 10 7 3 4 9 17 23 26 29 33 33 32 33 32 32 30 29 24 25 27 27
7 18 18 29 44 42 35 28 29 26 27 27 24 22 22 22 20 17 14 13 13 14 15 11 8 4 2 7 16 22 27 28 29 31 31 31 32 29 22 17 18 18 19 19
20 23 37 43 34 22 25 25 26 24 22 23 25 21 16 14 13 12 12 13 14 13 14 14 11 9 4 7 12 19 26 28 28 30 31 29 28 26 26 21 16 13 15 21
29 31 20 8 16 18 19 22 25 21 19 21 23 22 19 14 11 13 12 13 13 14 15 17 18 16 10 13 16 20 22 22 24 26 26 27 26 24 24 27 25 22 20 20
13 19 11 15 15 16 19 22 27 24 27 30 27 26 22 19 13 11 11 13 15 18 18 20 22 22 21 20 21 22 24 25 25 24 25 24 23 23 26 27 27 27 25 22
11 8 11 15 18 19 20 24 26 27 29 27 30 30 26 19 13 10 10 12 15 13 9 13 20 23 25 23 24 23 23 21 22 23 24 24 24 24 27 29 29 29 29 29
11 12 15 17 18 19 18 20 23 24 25 29 30 28 26 22 12 7 8 8 9 9 5 4 13 20 24 23 24 23 22 21 21 22 23 24 24 25 28 31 31 29 28 26
9 10 13 14 19 20 20 21 23 25 23 24 25 25 24 23 16 7 8 5 3 5 7 6 9 16 18 20 21 21 21 21 22 23 23 25 24 25 29 31 30 27 25 23
10 12 13 15 18 20 20 22 22 22 24 20 22 23 23 22 19 11 8 10 5 3 6 10 12 14 16 18 18 18 18 19 22 22 22 24 24 27 29 29 28 25 24 24
12 14 15 16 17 19 22 20 20 23 22 19 19 21 22 22 21 18 10 8 12 7 8 9 12 14 16 17 17 17 18 19 21 23 24 25 26 27 27 26 25 24 24 24
13 15 16 19 19 20 22 20 21 23 22 22 18 18 19 19 18 17 16 10 6 11 13 13 13 16 17 18 18 17 18 20 21 23 24 25 26 25 25 24 24 24 24 23
14 15 17 18 19 21 22 20 19 20 21 21 21 20 17 16 16 13 12 13 10 3 14 17 17 18 19 18 18 19 19 20 22 23 24 24 25 25 24 24 24 23 23 22
15 14 15 15 17 20 22 22 19 19 21 20 21 21 22 16 15 13 9 7 5 3 5 12 17 18 18 21 21 22 23 22 21 22 22 22 22 22 22 23 23 23 23 22
14 14 15 16 16 18 22 24 23 21 19 20 19 20 20 19 12 10 8 8 2 4 7 12 14 15 17 19 21 22 23 23 22 21 21 21 21 21 21 21 21 21 21 21
15 16 17 19 19 20 18 20 22 22 24 22 19 18 17 15 14 12 10 8 4 4 7 11 14 14 15 17 20 22 20 20 20 22 22 23 23 23 22 21 21 21 21 20
16 17 18 17 17 17 16 20 19 22 24 27 25 23 19 16 14 13 11 10 8 9 11 14 15 16 15 15 16 18 19 20 21 21 22 22 22 22 21 21 21 21 20 19
15 15 17 16 15 17 20 20 18 22 24 24 25 24 22 19 17 15 13 12 12 13 13 15 18 18 17 18 19 19 18 19 19 20 21 21 22 21 21 21 20 20 19 19
Wind_Direction
273 280 283 285 289 287 285 274 267 277 280 282 287 291 293 286 282 275 275 270 273 257 250 255 256 244 243 227 230 224 214 213 207 207 201 194 194 197 195 192 193 195 190 188
283 278 279 278 276 273 272 278 275 273 274 277 287 293 288 286 293 286 284 286 269 254 245 253 252 256 229 237 247 238 233 212 206 199 194 193 195 193 193 191 192 189 189 190
273 283 287 279 263 273 281 276 273 278 288 294 296 294 299 295 301 308 304 308 295 286 281 283 278 251 234 245 224 218 221 213 203 200 199 198 194 193 192 191 193 191 194 190
278 302 253 251 319 323 325 291 281 275 276 302 305 296 293 304 350 12 32 65 352 330 264 269 288 225 247 209 205 195 204 202 202 199 201 195 195 194 192 193 199 198 197 196
275 288 282 289 27 342 340 304 20 341 319 327 321 321 324 21 19 44 56 51 37 356 345 351 346 207 212 208 220 203 205 205 207 202 198 196 195 193 191 193 193 196 204 199
284 274 281 51 349 343 318 247 349 332 315 341 0 29 339 348 2 28 32 29 19 10 360 356 5 281 224 226 219 215 204 204 203 203 201 193 194 193 194 195 199 208 200 195
265 272 275 274 359 330 326 345 315 313 319 326 331 308 312 330 347 2 5 4 6 3 356 349 353 354 233 225 218 211 212 198 203 202 199 198 197 195 196 198 202 195 195 200
265 273 274 329 345 344 297 303 311 323 331 330 320 313 323 323 320 326 332 335 339 351 350 341 339 345 275 231 230 219 209 209 203 199 196 195 194 194 193 195 203 196 194 186
268 259 301 304 299 289 291 287 298 313 320 328 325 330 320 311 315 307 305 309 318 327 331 330 317 336 289 232 218 216 206 200 197 196 195 201 190 190 192 200 198 195 191 192
300 267 285 299 294 309 318 319 317 317 315 319 321 329 327 318 317 315 315 307 306 309 312 321 318 326 302 237 218 204 195 191 192 193 191 190 188 200 197 198 197 194 193 192
267 288 294 291 313 322 323 328 332 341 339 328 323 317 315 314 307 310 316 313 299 297 292 300 303 290 255 229 205 195 193 191 190 189 188 190 194 198 201 208 209 204 202 201
266 288 291 296 305 313 321 332 340 343 347 348 345 316 309 300 302 301 312 312 304 294 279 269 275 243 205 197 194 195 187 186 186 181 187 188 190 190 199 210 202 207 213 211
271 287 295 293 308 324 324 336 337 341 342 344 356 358 345 316 306 300 301 303 302 298 280 261 253 227 187 197 186 192 186 180 179 182 184 185 185 187 181 177 186 203 204 191
282 279 289 319 322 334 333 340 342 345 348 349 352 356 359 345 331 313 303 304 307 301 281 256 237 220 201 199 183 184 182 176 177 179 182 183 184 185 181 174 177 179 178 183
300 316 311 327 340 339 343 350 351 353 352 353 354 355 348 341 330 325 315 315 313 300 275 257 235 213 194 195 184 182 178 177 181 181 182 184 184 182 181 179 177 176 174 179
324 327 341 346 344 342 345 352 353 349 355 351 354 357 349 336 322 318 323 329 334 330 307 255 230 206 197 187 179 181 183 184 182 182 184 184 183 184 183 184 181 178 179 181
346 344 347 347 338 339 341 348 348 347 351 355 356 352 348 346 330 310 315 339 355 28 1 245 209 196 187 183 176 180 180 180 183 185 186 186 187 186 186 185 183 185 188 192
353 347 340 337 351 344 344 347 348 352 352 351 353 355 358 358 350 306 281 285 345 89 78 91 155 171 175 174 176 179 181 182 182 186 185 187 188 187 186 185 186 187 191 192
10 356 351 348 349 350 348 345 349 346 349 348 353 356 359 4 3 341 285 241 270 178 143 136 139 151 160 167 172 178 183 184 183 183 186 185 184 182 182 183 186 190 191 193
4 360 358 357 358 353 347 348 343 344 349 349 346 352 355 358 2 7 357 255 244 227 186 162 163 168 171 174 178 185 188 188 185 182 181 181 180 180 183 187 190 191 194 198
350 348 347 351 349 350 351 348 342 343 346 350 346 342 344 349 352 357 5 358 297 233 193 187 181 172 174 178 181 187 188 183 180 178 177 180 181 184 186 188 190 193 194 197
340 341 344 346 344 342 347 346 342 339 341 342 348 347 339 341 352 355 352 360 4 264 200 189 184 183 180 178 179 180 179 178 177 176 178 181 183 184 186 188 190 192 195 200
324 324 324 326 333 337 337 348 351 346 345 340 337 339 345 335 336 342 350 351 355 27 206 191 188 187 186 183 182 179 177 176 178 182 184 185 186 187 189 192 196 200 204 206
331 333 330 327 328 334 338 344 344 346 340 340 337 333 331 335 321 322 325 340 281 232 214 197 192 187 192 194 187 186 182 182 183 190 195 196 197 197 200 202 203 204 203 203
336 335 336 338 337 334 331 332 336 339 346 343 333 330 330 322 322 308 297 300 283 238 196 188 181 190 198 196 193 190 192 197 203 203 204 204 201 202 203 203 204 202 198 197
336 336 335 336 335 336 335 329 329 331 337 337 336 335 326 323 307 307 296 273 261 234 221 209 202 190 191 192 193 196 200 203 203 203 204 202 203 203 202 200 196 195 198 201
337 338 338 341 343 339 334 337 338 326 328 331 329 329 331 325 310 290 291 278 260 239 226 211 203 202 203 202 201 202 203 203 202 201 201 200 199 200 200 199 200 202 206 210
Height
1478 1476 1470 1459 1448 1440 1441 1433 1431 1418 1408 1390 1387 1380 1375 1371 1368 1365 1364 1363 1362 1362 1362 1364 1365 1365 1365 1364 1368 1373 1378 1386 1395 1403 1410 1418 1425 1433 1440 1446 1452 1457 1458 1463
1474 1468 1467 1457 1442 1435 1424 1417 1411 1410 1395 1384 1379 1373 1369 1365 1361 1357 1355 1354 1355 1356 1359 1358 1360 1360 1361 1363 1360 1369 1378 1384 1393 1400 1407 1415 1423 1430 1438 1443 1449 1453 1457 1463
1466 1456 1455 1448 1431 1423 1412 1408 1405 1398 1386 1382 1372 1367 1366 1362 1360 1357 1354 1354 1355 1357 1358 1358 1359 1358 1359 1359 1358 1363 1377 1381 1390 1398 1404 1411 1420 1428 1434 1438 1447 1451 1457 1460
1457 1452 1450 1419 1418 1424 1415 1403 1392 1387 1383 1379 1372 1366 1362 1360 1361 1358 1355 1357 1358 1356 1356 1357 1355 1355 1356 1355 1356 1364 1372 1380 1390 1396 1403 1410 1417 1424 1429 1437 1445 1450 1455 1458
1455 1444 1426 1414 1423 1423 1415 1399 1395 1393 1384 1376 1368 1364 1361 1362 1362 1361 1360 1360 1359 1357 1355 1354 1352 1352 1356 1358 1361 1365 1371 1376 1384 1393 1399 1406 1414 1421 1429 1434 1441 1447 1452 1457
1453 1449 1434 1422 1419 1414 1408 1389 1395 1390 1387 1377 1371 1369 1365 1364 1363 1363 1361 1360 1359 1356 1354 1353 1352 1351 1353 1356 1360 1364 1366 1372 1380 1387 1397 1402 1410 1417 1425 1432 1438 1444 1452 1456
1449 1448 1427 1419 1418 1411 1404 1403 1397 1391 1384 1379 1375 1374 1368 1365 1364 1362 1361 1360 1359 1357 1355 1352 1350 1351 1352 1354 1357 1363 1368 1371 1378 1385 1395 1401 1408 1414 1423 1431 1439 1445 1449 1452
1447 1446 1435 1417 1416 1423 1415 1401 1397 1389 1385 1380 1375 1370 1367 1364 1363 1362 1361 1360 1359 1359 1357 1354 1352 1350 1350 1353 1355 1359 1365 1369 1376 1383 1391 1398 1404 1412 1421 1428 1435 1439 1445 1448
1448 1431 1420 1422 1425 1415 1411 1405 1396 1391 1383 1380 1374 1369 1365 1363 1361 1359 1359 1358 1357 1356 1355 1354 1353 1353 1351 1350 1353 1356 1361 1367 1373 1379 1388 1394 1401 1410 1418 1426 1430 1435 1440 1446
1442 1425 1420 1417 1411 1409 1405 1399 1394 1389 1381 1375 1371 1366 1363 1360 1358 1357 1355 1354 1353 1353 1352 1350 1350 1351 1350 1350 1351 1355 1359 1364 1371 1376 1384 1393 1400 1409 1414 1421 1424 1429 1433 1442
1430 1424 1418 1408 1408 1405 1398 1392 1386 1378 1374 1370 1367 1362 1360 1358 1356 1354 1353 1351 1350 1349 1349 1348 1347 1348 1347 1348 1349 1353 1357 1362 1367 1376 1383 1391 1398 1405 1410 1418 1420 1423 1430 1435
1425 1421 1421 1409 1403 1400 1396 1390 1385 1380 1374 1368 1364 1358 1355 1353 1352 1351 1350 1348 1347 1346 1346 1346 1347 1348 1347 1347 1347 1353 1357 1361 1366 1374 1382 1389 1396 1402 1410 1416 1418 1423 1429 1433
1422 1419 1415 1407 1401 1399 1395 1390 1385 1380 1376 1370 1363 1357 1352 1349 1348 1347 1347 1346 1344 1343 1342 1343 1344 1346 1346 1348 1347 1352 1357 1362 1367 1374 1381 1387 1393 1399 1404 1411 1417 1422 1427 1431
1417 1411 1409 1406 1402 1398 1394 1389 1385 1380 1375 1369 1362 1358 1352 1349 1347 1346 1344 1343 1341 1340 1339 1339 1340 1342 1344 1347 1349 1354 1359 1363 1368 1373 1379 1385 1391 1396 1402 1406 1412 1419 1425 1430
1410 1409 1406 1403 1399 1396 1392 1387 1382 1376 1371 1366 1362 1356 1351 1348 1345 1343 1342 1340 1338 1335 1333 1333 1334 1337 1340 1344 1349 1353 1358 1363 1368 1373 1379 1384 1390 1396 1401 1407 1412 1416 1422 1429
1405 1404 1403 1400 1396 1393 1389 1384 1380 1375 1370 1366 1360 1353 1350 1346 1343 1342 1341 1338 1335 1330 1328 1327 1328 1333 1337 1342 1348 1353 1359 1364 1369 1373 1378 1384 1389 1394 1399 1405 1410 1415 1420 1426
1405 1403 1400 1398 1395 1392 1388 1384 1380 1375 1370 1365 1360 1355 1350 1344 1341 1340 1339 1337 1334 1331 1328 1328 1329 1332 1336 1342 1347 1353 1359 1364 1369 1373 1378 1383 1388 1392 1398 1403 1409 1414 1420 1424
1405 1403 1401 1399 1394 1390 1386 1383 1379 1374 1369 1366 1361 1356 1350 1345 1341 1339 1339 1338 1336 1334 1332 1331 1332 1335 1340 1344 1349 1354 1359 1364 1368 1373 1377 1382 1386 1391 1396 1401 1407 1412 1417 1422
1405 1402 1399 1396 1393 1389 1385 1381 1378 1374 1370 1366 1361 1357 1352 1347 1342 1339 1337 1336 1336 1337 1336 1336 1337 1339 1343 1347 1351 1355 1359 1363 1367 1372 1376 1380 1385 1390 1395 1400 1405 1410 1414 1418
1403 1401 1398 1395 1392 1388 1384 1380 1377 1373 1369 1365 1361 1357 1353 1348 1344 1340 1337 1336 1337 1338 1339 1339 1340 1342 1345 1348 1352 1355 1359 1363 1366 1370 1374 1379 1384 1389 1394 1399 1403 1407 1411 1415
1402 1399 1396 1392 1389 1386 1383 1379 1375 1371 1367 1364 1360 1357 1353 1349 1345 1342 1339 1336 1335 1335 1337 1340 1342 1343 1346 1349 1352 1356 1359 1362 1366 1370 1374 1379 1384 1388 1393 1397 1402 1405 1409 1413
1399 1397 1394 1391 1388 1384 1381 1376 1373 1370 1366 1362 1360 1356 1352 1349 1346 1343 1340 1338 1335 1333 1334 1337 1340 1343 1346 1349 1352 1356 1359 1363 1366 1370 1374 1378 1383 1387 1391 1395 1399 1403 1406 1410
1397 1394 1391 1388 1385 1381 1378 1374 1370 1367 1364 1361 1357 1354 1351 1348 1346 1343 1341 1340 1338 1336 1336 1337 1340 1342 1345 1348 1352 1355 1359 1363 1367 1371 1375 1378 1382 1385 1389 1392 1396 1399 1403 1406
1393 1390 1387 1385 1382 1379 1375 1371 1368 1365 1362 1359 1356 1353 1350 1346 1344 1343 1341 1339 1338 1338 1338 1339 1340 1342 1345 1348 1351 1355 1359 1362 1366 1370 1374 1377 1380 1383 1386 1389 1392 1395 1399 1401
1390 1388 1385 1381 1379 1376 1373 1371 1367 1363 1359 1355 1353 1350 1348 1345 1343 1341 1339 1339 1338 1338 1338 1339 1340 1342 1345 1347 1350 1353 1357 1360 1363 1367 1370 1373 1376 1379 1382 1385 1388 1391 1394 1397
1387 1384 1381 1380 1377 1374 1371 1367 1365 1361 1357 1353 1350 1347 1344 1342 1340 1338 1337 1336 1336 1336 1336 1337 1339 1341 1343 1346 1349 1352 1355 1357 1360 1363 1366 1369 1372 1375 1378 1382 1385 1388 1391 1394
1383 1380 1378 1376 1374 1372 1368 1365 1362 1359 1356 1352 1348 1344 1341 1338 1336 1334 1333 1332 1332 1333 1334 1335 1336 1338 1341 1344 1346 1349 1351 1354 1357 1359 1362 1365 1368 1372 1375 1378 1381 1384 1387 1390